Regional Weather Roundup
Issued by NWS

Home | Current Version | Previous Version | Graphics & Text | Print | Product List | Glossary On
Versions: 1 2 3 4 5 6 7 8 9 10 11 12 13 14 15 16 17 18 19 20 21 22 23 24 25 26 27 28 29 30 31 32 33 34 35 36 37 38 39 40 41 42 43 44 45 46 47 48 49 50
000
ASUS44 KMEG 290200
RWRTN
TENNESSEE HOURLY STATE WEATHER ROUNDUP
NATIONAL WEATHER SERVICE MEMPHIS TN
900 PM CDT TUE JUL 28 2015

TNZ002-004-019-021-049-052-054-088>092-290300-
WEST TENNESSEE

CITY           SKY/WX    TMP DP  RH WIND       PRES   REMARKS
MEMPHIS INTL   CLEAR     91  73  55 CALM      29.96R HX  99
NWS MEMPHIS      N/A     84 N/A N/A MISG        N/A
JACKSON        CLEAR     84  79  85 CALM      29.98R HX  96
DYERSBURG        N/A    N/A N/A N/A MISG        N/A
PARIS          CLOUDY    75  68  78 NE18      30.07R
LEXINGTON      CLEAR     84  79  84 CALM      29.98R HX  96
$$

TNZ008-025-027-028-033-062-065-066-290300-
NORTH MIDDLE TENNESSEE

CITY           SKY/WX    TMP DP  RH WIND       PRES   REMARKS
NASHVILLE      CLOUDY    78  75  90 W7        30.02R
CLARKSVILLE    CLOUDY    75  73  93 SW7       29.99F THUNDER
CROSSVILLE     MOCLDY    74  69  85 CALM      30.08R
$$

TNZ061-075-076-078-094-096-097-290300-
SOUTH MIDDLE TENNESSEE

CITY           SKY/WX    TMP DP  RH WIND       PRES   REMARKS
FAYETTEVILLE   CLEAR     75  73  94 CALM      30.02R
TULLAHOMA      CLEAR     75  72  88 CALM      30.04R
WINCHESTER     CLEAR     75  73  94 CALM      30.03R
MCMINNVILLE    CLEAR     77  77 100 CALM      30.03R
SHELBYVILLE    CLEAR     75  75 100 CALM      30.03R
$$

TNZ017-018-042-046-047-290300-
NORTHEAST TENNESSEE

CITY           SKY/WX    TMP DP  RH WIND       PRES   REMARKS
TRI CITIES     MOCLDY    74  71  91 CALM      30.04R
ELIZABETHTON   MOCLDY    72  68  88 CALM      30.05R
$$

TNZ012-013-036-069-073-074-290300-
CENTRAL EAST TENNESSEE

CITY           SKY/WX    TMP DP  RH WIND       PRES   REMARKS
KNOXVILLE      MOCLDY    80  72  76 W7        30.00R
OAK RIDGE      MOCLDY    77  72  84 CALM      30.02R
GATLINBURG     CLEAR     77  70  78 CALM      30.01R
$$

TNZ083-085-099-290300-
SOUTHEAST TENNESSEE

CITY           SKY/WX    TMP DP  RH WIND       PRES   REMARKS
CHATTANOOGA    MOCLDY    81  76  84 E5        29.99R
$$

SKY/WX REPORTED AS FAIR MEANS FEW OR NO CLOUDS BELOW
12 THOUSAND FEET.




USA.gov is the U.S. government's official web portal to all federal, state and local government web resources and services.